CZ-6A DEB, 54278

Orbit data source: Space-Track

CZ-6A DEB, 54278 is space debris in SSO originally from a launch on Fri, 11 Nov 2022 UTC launched from the Taiyaun Space Center, China (TSC). Debris objects in space refer to the collection of defunct objects orbiting the Earth. Examples of debris include non-operational satellites, rocket bodies, and fragments generated from explosions, collisions, or faulty payload assembly.

Loading next visibility...
Identifier
54278, 2022-151V
Orbit
SSO
Country
Flag of CNCN / PRC
Related business
Manufacturer
SAST
Mission
Spacecraft
Bus & Motor
Unknown
Mass
Unknown
Launch date (UTC)
2022-11-11 (3 years ago)
Launch vehicle
Unknown
Launch site
Taiyaun Space Center, China (TSC)
Object type
Payload
Rocket body
Debris
Shape & HBR
Unknown shape, 0.1 m
Radar Cross Section
Small (<0.1 m²)

Expand to show TLE details & history
Last TLE update: 1 day ago

TLE from 1 day ago
0 CZ-6A DEB
1 54278U 22151V   25351.50650047  .00006422  00000-0  23083-2 0  9992
2 54278  98.6571 343.0802 0112113 336.0002  23.5978 14.30676514159373
Epoch: 2025-12-17T12:09Z
TLE epoch observation values (Epoch: 2025-12-17T12:09:21.640Z)
Latitude
-0.00005°
Longitude
74.36466°
Altitude
718.895 km
Speed
7.534 km/s
True Right ascension
22h 52m 19s
True Declination
0° 00' 00"
Sunlit
Object was in daylight at epoch
Visualization orbit readout
Latitude
Unknown
Longitude
Unknown
Altitude
Unknown
Speed
Unknown
Apparent Right ascension
Unknown
Apparent Declination
Unknown
Sunlit
N/A
Visualization observer readout
Local Sidereal Time
16:16:30
Azimuth
Unknown
Elevation
Unknown
Doppler factor
Unknown
Orbital elements
Apogee altitude
866.938 km
Perigee altitude
706.286 km
Semi-major axis
7,164.749 km
Eccentricity
0.01121
Inclination
98.6571°
RAAN
343.0802°
Arg. of periapsis
336.0002°
True anomaly
24.11877°
Mean anomaly
23.5978°
Eccentric anomaly
23.85761°
Mean motion
3.57884 °/min
Orbital period
100.59 mins
BSTAR
0.0023083
Loading maneuver chart data...
Computing Atmospheric mass density...
Loading historical data...
Loading historical data...
Loading historical data...
Loading historical data...
Loading historical data...
Loading historical data...
Loading historical data...

Documentation

Showing up to 5 results
|